Regional Weather Roundup
Issued by NWS Charleston, SC

Current Version | Previous Version | Graphics & Text | Print | Product List | Glossary On
Versions: 1 2 3 4 5 6 7 8 9 10 11 12 13 14 15 16 17 18 19 20 21 22 23 24 25 26 27 28 29 30 31 32 33 34 35 36 37 38 39 40 41 42 43 44 45 46 47 48 49 50
000
ASUS42 KCHS 310611
RWRCHS

REGIONAL WEATHER ROUNDUP
NATIONAL WEATHER SERVICE CHARLESTON SC
100 AM EST SAT JAN 31 2015

NOTE: "FAIR" INDICATES FEW OR NO CLOUDS BELOW 12,000 FEET WITH NO
SIGNIFICANT WEATHER AND/OR OBSTRUCTIONS TO VISIBILITY.

NOT ALL STATIONS ARE QUALITY CONTROLLED BY THE NATIONAL
WEATHER SERVICE. USE DATA WITH CAUTION...ESPECIALLY
DEWPOINT OBSERVATIONS.

SCZ027-030-031-034>040-042>050-310700-
...SOUTHEAST SOUTH CAROLINA...

CITY           SKY/WX    TMP DP  RH WIND       PRES   REMARKS
N CHARLESTON   CLEAR     40  19  43 N10       30.30S WCI  33
6HR MIN TEMP:  38; 6HR MAX TEMP:  48;

WATERFRONT PRK NOT AVBL
MOUNT PLEASANT FAIR      37  23  56 CALM      30.29S
PINOPOLIS        N/A     43  23  45 NE14      30.22R
MONCKS CORNER  FAIR      41  19  42 N7        30.30R
SUMMERVILLE    NOT AVBL
BEAUFORT MCAS  CLEAR     38  26  62 N5        30.30S WCI  34
6HR MIN TEMP:  36; 6HR MAX TEMP:  50;

BEAUFORT ARPT  FAIR      41  28  60 N6        30.29F
HILTON HEAD IS CLEAR     45  28  53 N7        30.31S
WALTERBORO     CLEAR     32  23  69 CALM      30.32R
ALLENDALE      FAIR      36  23  60 CALM      30.31S

...SOUTHERN MIDLANDS AND PEE DEE...

CITY           SKY/WX    TMP DP  RH WIND       PRES   REMARKS
GEORGETOWN     NOT AVBL
KINGSTREE      NOT AVBL
ORANGEBURG     CLEAR     34  24  67 CALM      30.31R
6HR MIN TEMP:  33; 6HR MAX TEMP:  49;

BARNWELL       FAIR      36  23  60 NW5       30.32S WCI  32
AIKEN          FAIR      34  19  55 CALM      30.34S
MANNING        FAIR      37  19  48 N3        30.31S
COLUMBIA       CLEAR     31  20  63 CALM      30.31S
6HR MIN TEMP:  31; 6HR MAX TEMP:  48;

SUMTER         CLEAR     31  17  56 NE9       30.30S WCI  22
6HR MIN TEMP:  30; 6HR MAX TEMP:  46;

FLORENCE       CLEAR     34  14  43 N9        30.32S WCI  27
6HR MIN TEMP:  34; 6HR MAX TEMP:  45;

MYRTLE BEACH   CLEAR     39  10  30 N13       30.32R WCI  32
N MYRTLE BEACH CLEAR     36  15  42 N6        30.30R WCI  31
6HR MIN TEMP:  36; 6HR MAX TEMP:  47;


$$

GAZ063-065-086>088-099>101-113>116-118-119-134>141-150-310700-
...SOUTHEAST GEORGIA...

CITY           SKY/WX    TMP DP  RH WIND       PRES   REMARKS
SAVANNAH ARPT  CLEAR     37  28  70 N3        30.31S
6HR MIN TEMP:  36; 6HR MAX TEMP:  50;

HUNTER AAF     CLEAR     38  29  71 CALM      30.28S
6HR MIN TEMP:  36; 6HR MAX TEMP:  51;

FORT STEWART   CLEAR     38  28  68 N6        30.29S WCI  33
6HR MIN TEMP:  37; 6HR MAX TEMP:  50;

STATESBORO     CLEAR     32  30  94 CALM      30.31S
SYLVANIA       CLEAR     38  28  64 N5        30.32S WCI  35
CLAXTON        FAIR      36  32  87 CALM      30.31S

...CSRA...CENTRAL AND FAR SOUTHEAST GEORGIA...

CITY           SKY/WX    TMP DP  RH WIND       PRES   REMARKS
THOMSON        CLEAR     31  28  89 CALM      30.37R
AUGUSTA-BUSH   CLEAR     28  20  71 NW3       30.33S
6HR MIN TEMP:  28; 6HR MAX TEMP:  45;

AUGUSTA-DANIEL CLEAR     39  17  41 N5        30.32S WCI  36
SWAINSBORO     FAIR      36  23  60 CALM      30.33R
VIDALIA        CLEAR     41  30  65 N7        30.32R
EASTMAN        FAIR      35  28  75 CALM      30.36R
HAZLEHURST     FAIR      39  32  75 NW3       30.31R
ALMA           MOCLDY    41  26  55 N7        30.31S
6HR MIN TEMP:  40; 6HR MAX TEMP:  49;

WAYCROSS       MOCLDY    44  32  64 N3        30.30S
JESUP          FAIR      46  32  57 CALM      30.29F
BAXLEY         FAIR      43  30  61 N5        30.30S
BRUNSWICK      PTCLDY    41  32  70 CALM      30.29F
SAINT SIMONS   PTCLDY    44  28  53 NW5       30.28F
6HR MIN TEMP:  44; 6HR MAX TEMP:  54;


$$

SCZ027-028-034-036>038-045-046-048>050-GAZ119-141-310700-
...LAKE AND SUPPLEMENTAL COASTAL OBSERVATIONS...

STATION/POSITION TIME  TEMP    WIND        PRES    WAVE   SWELL
                       AIR SEA DIR/SP/G            HT/PER HT/PER/DIR
                 (UTC) (F)     (DEG/KT/KT) (MB)    (FT/S) (FT/S/D)
UPR LAKE MARION  NOT AVBL
WINYAH BAY       NOT AVBL
LAKE MURRAY      0500   38      CALM  /  3 1025.7S
ACE BASIN NERRS  NOT AVBL
FORT PULASKI     0500   46 52  350/  4/  5 1026.3R
SAPELO ISLAND    0500   40      10/  3     1026.0R

$$

ANZ835-935-AMZ111-154-330-350-352-354-370-450-454-472-310700-
...C-MAN AND BUOY OBSERVATIONS...

STATION/POSITION TIME  TEMP    WIND        PRES    WAVE   SWELL
                       AIR SEA DIR/SP/G            HT/PER HT/PER/DIR
                 (UTC) (F)     (DEG/KT/KT) (MB)    (FT/S) (FT/S/D)
BUOY 41004       0550   51 68   10/ 23/ 27 1023.6F   6/ 6   2/10
BUOY 41008       0550   52 53   30/ 14/ 16 1025.1F   2/ 3
FOLLY BEACH CMAN 0500   44     360/ 10/ 13 1026.2R
CAPERS NEARSHORE 0500   45      30/ 17/ 21   N/A
FRIPP NEARSHORE  0500   49      30/ 16/ 17 1024.6F


STATION/POSITION TIME  TEMP    WIND        PRES    WAVE   SWELL
                       AIR SEA DIR/SP/G            HT/PER HT/PER/DIR
                 (UTC) (F)     (DEG/KT/KT) (MB)    (FT/S) (FT/S/D)
5E ST. MARYS GA  0521      56                N/A     3/ 4
FRYING PAN BUOY  0550   44 62  340/ 25/ 31 1024.8R   7/ 6
BUOY 41025       0550   39 64  330/ 29/ 35 1021.3S   8/ 6
CAPE LOOKOUT NC  0500   37     340/ 22/ 25 1023.6R
BUOY 41002       0550   57 71  320/ 25/ 33 1019.5R  12/ 9
BUOY 41010       0520   64 73  350/ 19/ 27 1022.2R
ST AUGUSTINE FL  0600   56      10/ 19/ 22 1025.1F


$$



USA.gov is the U.S. government's official web portal to all federal, state and local government web resources and services.